Index of /20260414/WXO-DD/model_gdps/15km/12/096
Name Last modified Size Description
Parent Directory -
20260414T12Z_MSC_GDPS_AbsoluteVorticity_IsbL-0200_LatLon0.15_PT096H.grib2 2026-04-14 16:32 1.2M
20260414T12Z_MSC_GDPS_AbsoluteVorticity_IsbL-0250_LatLon0.15_PT096H.grib2 2026-04-14 16:32 1.3M
20260414T12Z_MSC_GDPS_AbsoluteVorticity_IsbL-0500_LatLon0.15_PT096H.grib2 2026-04-14 16:32 1.2M
20260414T12Z_MSC_GDPS_AbsoluteVorticity_IsbL-0700_LatLon0.15_PT096H.grib2 2026-04-14 16:32 1.6M
20260414T12Z_MSC_GDPS_AbsoluteVorticity_IsbL-0850_LatLon0.15_PT096H.grib2 2026-04-14 16:32 1.6M
20260414T12Z_MSC_GDPS_AirTemp-Max_AGL-2m_LatLon0.15_PT096H.grib2 2026-04-14 16:32 747K
20260414T12Z_MSC_GDPS_AirTemp-Min_AGL-2m_LatLon0.15_PT096H.grib2 2026-04-14 16:32 791K
20260414T12Z_MSC_GDPS_AirTemp_AGL-120m_LatLon0.15_PT096H.grib2 2026-04-14 16:32 908K
20260414T12Z_MSC_GDPS_AirTemp_AGL-2m_LatLon0.15_PT096H.grib2 2026-04-14 16:32 1.0M
20260414T12Z_MSC_GDPS_AirTemp_AGL-40m_LatLon0.15_PT096H.grib2 2026-04-14 16:32 809K
20260414T12Z_MSC_GDPS_AirTemp_AGL-80m_LatLon0.15_PT096H.grib2 2026-04-14 16:32 916K
20260414T12Z_MSC_GDPS_AirTemp_IsbL-0001_LatLon0.15_PT096H.grib2 2026-04-14 16:32 697K
20260414T12Z_MSC_GDPS_AirTemp_IsbL-0005_LatLon0.15_PT096H.grib2 2026-04-14 16:32 681K
20260414T12Z_MSC_GDPS_AirTemp_IsbL-0010_LatLon0.15_PT096H.grib2 2026-04-14 16:32 749K
20260414T12Z_MSC_GDPS_AirTemp_IsbL-0020_LatLon0.15_PT096H.grib2 2026-04-14 16:32 692K
20260414T12Z_MSC_GDPS_AirTemp_IsbL-0030_LatLon0.15_PT096H.grib2 2026-04-14 16:32 746K
20260414T12Z_MSC_GDPS_AirTemp_IsbL-0050_LatLon0.15_PT096H.grib2 2026-04-14 16:32 814K
20260414T12Z_MSC_GDPS_AirTemp_IsbL-0100_LatLon0.15_PT096H.grib2 2026-04-14 16:32 948K
20260414T12Z_MSC_GDPS_AirTemp_IsbL-0150_LatLon0.15_PT096H.grib2 2026-04-14 16:32 961K
20260414T12Z_MSC_GDPS_AirTemp_IsbL-0175_LatLon0.15_PT096H.grib2 2026-04-14 16:32 954K
20260414T12Z_MSC_GDPS_AirTemp_IsbL-0200_LatLon0.15_PT096H.grib2 2026-04-14 16:32 966K
20260414T12Z_MSC_GDPS_AirTemp_IsbL-0225_LatLon0.15_PT096H.grib2 2026-04-14 16:32 969K
20260414T12Z_MSC_GDPS_AirTemp_IsbL-0250_LatLon0.15_PT096H.grib2 2026-04-14 16:32 1.0M
20260414T12Z_MSC_GDPS_AirTemp_IsbL-0275_LatLon0.15_PT096H.grib2 2026-04-14 16:32 1.0M
20260414T12Z_MSC_GDPS_AirTemp_IsbL-0300_LatLon0.15_PT096H.grib2 2026-04-14 16:32 1.0M
20260414T12Z_MSC_GDPS_AirTemp_IsbL-0350_LatLon0.15_PT096H.grib2 2026-04-14 16:32 922K
20260414T12Z_MSC_GDPS_AirTemp_IsbL-0400_LatLon0.15_PT096H.grib2 2026-04-14 16:32 934K
20260414T12Z_MSC_GDPS_AirTemp_IsbL-0450_LatLon0.15_PT096H.grib2 2026-04-14 16:32 955K
20260414T12Z_MSC_GDPS_AirTemp_IsbL-0500_LatLon0.15_PT096H.grib2 2026-04-14 16:32 1.0M
20260414T12Z_MSC_GDPS_AirTemp_IsbL-0550_LatLon0.15_PT096H.grib2 2026-04-14 16:32 794K
20260414T12Z_MSC_GDPS_AirTemp_IsbL-0600_LatLon0.15_PT096H.grib2 2026-04-14 16:32 889K
20260414T12Z_MSC_GDPS_AirTemp_IsbL-0650_LatLon0.15_PT096H.grib2 2026-04-14 16:32 922K
20260414T12Z_MSC_GDPS_AirTemp_IsbL-0700_LatLon0.15_PT096H.grib2 2026-04-14 16:32 958K
20260414T12Z_MSC_GDPS_AirTemp_IsbL-0750_LatLon0.15_PT096H.grib2 2026-04-14 16:32 1.0M
20260414T12Z_MSC_GDPS_AirTemp_IsbL-0800_LatLon0.15_PT096H.grib2 2026-04-14 16:32 1.1M
20260414T12Z_MSC_GDPS_AirTemp_IsbL-0850_LatLon0.15_PT096H.grib2 2026-04-14 16:32 1.1M
20260414T12Z_MSC_GDPS_AirTemp_IsbL-0875_LatLon0.15_PT096H.grib2 2026-04-14 16:32 1.2M
20260414T12Z_MSC_GDPS_AirTemp_IsbL-0900_LatLon0.15_PT096H.grib2 2026-04-14 16:32 1.2M
20260414T12Z_MSC_GDPS_AirTemp_IsbL-0925_LatLon0.15_PT096H.grib2 2026-04-14 16:32 1.1M
20260414T12Z_MSC_GDPS_AirTemp_IsbL-0950_LatLon0.15_PT096H.grib2 2026-04-14 16:32 1.1M
20260414T12Z_MSC_GDPS_AirTemp_IsbL-0970_LatLon0.15_PT096H.grib2 2026-04-14 16:32 1.1M
20260414T12Z_MSC_GDPS_AirTemp_IsbL-0985_LatLon0.15_PT096H.grib2 2026-04-14 16:32 1.1M
20260414T12Z_MSC_GDPS_AirTemp_IsbL-1000_LatLon0.15_PT096H.grib2 2026-04-14 16:32 1.1M
20260414T12Z_MSC_GDPS_AirTemp_IsbL-1015_LatLon0.15_PT096H.grib2 2026-04-14 16:32 1.1M
20260414T12Z_MSC_GDPS_Albedo_Sfc_LatLon0.15_PT096H.grib2 2026-04-14 16:32 244K
20260414T12Z_MSC_GDPS_CAPE_Sfc_LatLon0.15_PT096H.grib2 2026-04-14 16:32 3.8M
20260414T12Z_MSC_GDPS_CIN_Sfc_LatLon0.15_PT096H.grib2 2026-04-14 16:32 2.9M
20260414T12Z_MSC_GDPS_CloudWater_EAtm_LatLon0.15_PT096H.grib2 2026-04-14 16:32 532K
20260414T12Z_MSC_GDPS_ConvectivePrecip-Accum_Sfc_LatLon0.15_PT096H.grib2 2026-04-14 16:32 3.2M
20260414T12Z_MSC_GDPS_DewPointDepression_AGL-2m_LatLon0.15_PT096H.grib2 2026-04-14 16:32 587K
20260414T12Z_MSC_GDPS_DewPointDepression_IsbL-0010_LatLon0.15_PT096H.grib2 2026-04-14 16:32 2.6K
20260414T12Z_MSC_GDPS_DewPointDepression_IsbL-0020_LatLon0.15_PT096H.grib2 2026-04-14 16:32 54K
20260414T12Z_MSC_GDPS_DewPointDepression_IsbL-0030_LatLon0.15_PT096H.grib2 2026-04-14 16:32 66K
20260414T12Z_MSC_GDPS_DewPointDepression_IsbL-0050_LatLon0.15_PT096H.grib2 2026-04-14 16:32 322K
20260414T12Z_MSC_GDPS_DewPointDepression_IsbL-0100_LatLon0.15_PT096H.grib2 2026-04-14 16:32 379K
20260414T12Z_MSC_GDPS_DewPointDepression_IsbL-0150_LatLon0.15_PT096H.grib2 2026-04-14 16:32 458K
20260414T12Z_MSC_GDPS_DewPointDepression_IsbL-0175_LatLon0.15_PT096H.grib2 2026-04-14 16:32 541K
20260414T12Z_MSC_GDPS_DewPointDepression_IsbL-0200_LatLon0.15_PT096H.grib2 2026-04-14 16:32 613K
20260414T12Z_MSC_GDPS_DewPointDepression_IsbL-0225_LatLon0.15_PT096H.grib2 2026-04-14 16:32 751K
20260414T12Z_MSC_GDPS_DewPointDepression_IsbL-0250_LatLon0.15_PT096H.grib2 2026-04-14 16:32 876K
20260414T12Z_MSC_GDPS_DewPointDepression_IsbL-0275_LatLon0.15_PT096H.grib2 2026-04-14 16:32 894K
20260414T12Z_MSC_GDPS_DewPointDepression_IsbL-0300_LatLon0.15_PT096H.grib2 2026-04-14 16:32 931K
20260414T12Z_MSC_GDPS_DewPointDepression_IsbL-0350_LatLon0.15_PT096H.grib2 2026-04-14 16:32 956K
20260414T12Z_MSC_GDPS_DewPointDepression_IsbL-0400_LatLon0.15_PT096H.grib2 2026-04-14 16:32 1.0M
20260414T12Z_MSC_GDPS_DewPointDepression_IsbL-0450_LatLon0.15_PT096H.grib2 2026-04-14 16:32 1.0M
20260414T12Z_MSC_GDPS_DewPointDepression_IsbL-0500_LatLon0.15_PT096H.grib2 2026-04-14 16:32 1.0M
20260414T12Z_MSC_GDPS_DewPointDepression_IsbL-0550_LatLon0.15_PT096H.grib2 2026-04-14 16:32 1.0M
20260414T12Z_MSC_GDPS_DewPointDepression_IsbL-0600_LatLon0.15_PT096H.grib2 2026-04-14 16:32 1.1M
20260414T12Z_MSC_GDPS_DewPointDepression_IsbL-0650_LatLon0.15_PT096H.grib2 2026-04-14 16:32 1.1M
20260414T12Z_MSC_GDPS_DewPointDepression_IsbL-0700_LatLon0.15_PT096H.grib2 2026-04-14 16:32 1.1M
20260414T12Z_MSC_GDPS_DewPointDepression_IsbL-0750_LatLon0.15_PT096H.grib2 2026-04-14 16:32 1.1M
20260414T12Z_MSC_GDPS_DewPointDepression_IsbL-0800_LatLon0.15_PT096H.grib2 2026-04-14 16:32 1.2M
20260414T12Z_MSC_GDPS_DewPointDepression_IsbL-0850_LatLon0.15_PT096H.grib2 2026-04-14 16:32 1.2M
20260414T12Z_MSC_GDPS_DewPointDepression_IsbL-0875_LatLon0.15_PT096H.grib2 2026-04-14 16:32 1.1M
20260414T12Z_MSC_GDPS_DewPointDepression_IsbL-0900_LatLon0.15_PT096H.grib2 2026-04-14 16:32 1.1M
20260414T12Z_MSC_GDPS_DewPointDepression_IsbL-0925_LatLon0.15_PT096H.grib2 2026-04-14 16:32 1.0M
20260414T12Z_MSC_GDPS_DewPointDepression_IsbL-0950_LatLon0.15_PT096H.grib2 2026-04-14 16:32 1.0M
20260414T12Z_MSC_GDPS_DewPointDepression_IsbL-0970_LatLon0.15_PT096H.grib2 2026-04-14 16:32 1.0M
20260414T12Z_MSC_GDPS_DewPointDepression_IsbL-0985_LatLon0.15_PT096H.grib2 2026-04-14 16:32 1.0M
20260414T12Z_MSC_GDPS_DewPointDepression_IsbL-1000_LatLon0.15_PT096H.grib2 2026-04-14 16:32 967K
20260414T12Z_MSC_GDPS_DewPointDepression_IsbL-1015_LatLon0.15_PT096H.grib2 2026-04-14 16:32 907K
20260414T12Z_MSC_GDPS_DewPoint_AGL-2m_LatLon0.15_PT096H.grib2 2026-04-14 16:32 616K
20260414T12Z_MSC_GDPS_DownwardLongwaveRadiationFlux-Accum_Sfc_LatLon0.15_PT096H.grib2 2026-04-14 16:32 721K
20260414T12Z_MSC_GDPS_DownwardShortwaveRadiationFlux-Accum_NTAtm_LatLon0.15_PT096H.grib2 2026-04-14 16:32 233K
20260414T12Z_MSC_GDPS_DownwardShortwaveRadiationFlux-Accum_Sfc_LatLon0.15_PT096H.grib2 2026-04-14 16:32 955K
20260414T12Z_MSC_GDPS_FreezingRain-Accum12h_Sfc_LatLon0.15_PT096H.grib2 2026-04-14 16:32 86K
20260414T12Z_MSC_GDPS_FreezingRain-Accum1h_Sfc_LatLon0.15_PT096H.grib2 2026-04-14 16:32 32K
20260414T12Z_MSC_GDPS_FreezingRain-Accum24h_Sfc_LatLon0.15_PT096H.grib2 2026-04-14 16:32 128K
20260414T12Z_MSC_GDPS_FreezingRain-Accum3h_Sfc_LatLon0.15_PT096H.grib2 2026-04-14 16:32 38K
20260414T12Z_MSC_GDPS_FreezingRain-Accum6h_Sfc_LatLon0.15_PT096H.grib2 2026-04-14 16:32 59K
20260414T12Z_MSC_GDPS_FreezingRain-Accum_Sfc_LatLon0.15_PT096H.grib2 2026-04-14 16:32 265K
20260414T12Z_MSC_GDPS_GeopotentialHeight_IsbL-0001_LatLon0.15_PT096H.grib2 2026-04-14 16:32 397K
20260414T12Z_MSC_GDPS_GeopotentialHeight_IsbL-0005_LatLon0.15_PT096H.grib2 2026-04-14 16:32 505K
20260414T12Z_MSC_GDPS_GeopotentialHeight_IsbL-0010_LatLon0.15_PT096H.grib2 2026-04-14 16:32 438K
20260414T12Z_MSC_GDPS_GeopotentialHeight_IsbL-0020_LatLon0.15_PT096H.grib2 2026-04-14 16:32 579K
20260414T12Z_MSC_GDPS_GeopotentialHeight_IsbL-0030_LatLon0.15_PT096H.grib2 2026-04-14 16:32 581K
20260414T12Z_MSC_GDPS_GeopotentialHeight_IsbL-0050_LatLon0.15_PT096H.grib2 2026-04-14 16:32 580K
20260414T12Z_MSC_GDPS_GeopotentialHeight_IsbL-0100_LatLon0.15_PT096H.grib2 2026-04-14 16:32 619K
20260414T12Z_MSC_GDPS_GeopotentialHeight_IsbL-0150_LatLon0.15_PT096H.grib2 2026-04-14 16:32 635K
20260414T12Z_MSC_GDPS_GeopotentialHeight_IsbL-0175_LatLon0.15_PT096H.grib2 2026-04-14 16:32 638K
20260414T12Z_MSC_GDPS_GeopotentialHeight_IsbL-0200_LatLon0.15_PT096H.grib2 2026-04-14 16:32 640K
20260414T12Z_MSC_GDPS_GeopotentialHeight_IsbL-0225_LatLon0.15_PT096H.grib2 2026-04-14 16:32 636K
20260414T12Z_MSC_GDPS_GeopotentialHeight_IsbL-0250_LatLon0.15_PT096H.grib2 2026-04-14 16:32 642K
20260414T12Z_MSC_GDPS_GeopotentialHeight_IsbL-0275_LatLon0.15_PT096H.grib2 2026-04-14 16:32 644K
20260414T12Z_MSC_GDPS_GeopotentialHeight_IsbL-0300_LatLon0.15_PT096H.grib2 2026-04-14 16:32 635K
20260414T12Z_MSC_GDPS_GeopotentialHeight_IsbL-0350_LatLon0.15_PT096H.grib2 2026-04-14 16:32 630K
20260414T12Z_MSC_GDPS_GeopotentialHeight_IsbL-0400_LatLon0.15_PT096H.grib2 2026-04-14 16:32 620K
20260414T12Z_MSC_GDPS_GeopotentialHeight_IsbL-0450_LatLon0.15_PT096H.grib2 2026-04-14 16:32 540K
20260414T12Z_MSC_GDPS_GeopotentialHeight_IsbL-0500_LatLon0.15_PT096H.grib2 2026-04-14 16:32 528K
20260414T12Z_MSC_GDPS_GeopotentialHeight_IsbL-0550_LatLon0.15_PT096H.grib2 2026-04-14 16:32 691K
20260414T12Z_MSC_GDPS_GeopotentialHeight_IsbL-0600_LatLon0.15_PT096H.grib2 2026-04-14 16:32 683K
20260414T12Z_MSC_GDPS_GeopotentialHeight_IsbL-0650_LatLon0.15_PT096H.grib2 2026-04-14 16:32 683K
20260414T12Z_MSC_GDPS_GeopotentialHeight_IsbL-0700_LatLon0.15_PT096H.grib2 2026-04-14 16:32 681K
20260414T12Z_MSC_GDPS_GeopotentialHeight_IsbL-0750_LatLon0.15_PT096H.grib2 2026-04-14 16:32 685K
20260414T12Z_MSC_GDPS_GeopotentialHeight_IsbL-0800_LatLon0.15_PT096H.grib2 2026-04-14 16:32 700K
20260414T12Z_MSC_GDPS_GeopotentialHeight_IsbL-0850_LatLon0.15_PT096H.grib2 2026-04-14 16:32 706K
20260414T12Z_MSC_GDPS_GeopotentialHeight_IsbL-0875_LatLon0.15_PT096H.grib2 2026-04-14 16:32 712K
20260414T12Z_MSC_GDPS_GeopotentialHeight_IsbL-0900_LatLon0.15_PT096H.grib2 2026-04-14 16:32 723K
20260414T12Z_MSC_GDPS_GeopotentialHeight_IsbL-0925_LatLon0.15_PT096H.grib2 2026-04-14 16:32 730K
20260414T12Z_MSC_GDPS_GeopotentialHeight_IsbL-0950_LatLon0.15_PT096H.grib2 2026-04-14 16:32 735K
20260414T12Z_MSC_GDPS_GeopotentialHeight_IsbL-0970_LatLon0.15_PT096H.grib2 2026-04-14 16:32 748K
20260414T12Z_MSC_GDPS_GeopotentialHeight_IsbL-0985_LatLon0.15_PT096H.grib2 2026-04-14 16:32 764K
20260414T12Z_MSC_GDPS_GeopotentialHeight_IsbL-1000_LatLon0.15_PT096H.grib2 2026-04-14 16:32 784K
20260414T12Z_MSC_GDPS_GeopotentialHeight_IsbL-1015_LatLon0.15_PT096H.grib2 2026-04-14 16:32 807K
20260414T12Z_MSC_GDPS_Humidex_Sfc_LatLon0.15_PT096H.grib2 2026-04-14 16:32 5.3M
20260414T12Z_MSC_GDPS_IcePellets-Accum12h_Sfc_LatLon0.15_PT096H.grib2 2026-04-14 16:32 39K
20260414T12Z_MSC_GDPS_IcePellets-Accum1h_Sfc_LatLon0.15_PT096H.grib2 2026-04-14 16:32 17K
20260414T12Z_MSC_GDPS_IcePellets-Accum24h_Sfc_LatLon0.15_PT096H.grib2 2026-04-14 16:32 53K
20260414T12Z_MSC_GDPS_IcePellets-Accum3h_Sfc_LatLon0.15_PT096H.grib2 2026-04-14 16:32 21K
20260414T12Z_MSC_GDPS_IcePellets-Accum6h_Sfc_LatLon0.15_PT096H.grib2 2026-04-14 16:32 32K
20260414T12Z_MSC_GDPS_IcePellets-Accum_Sfc_LatLon0.15_PT096H.grib2 2026-04-14 16:32 121K
20260414T12Z_MSC_GDPS_KIndex_Sfc_LatLon0.15_PT096H.grib2 2026-04-14 16:32 6.5M
20260414T12Z_MSC_GDPS_LatentHeatNetFlux_Sfc_LatLon0.15_PT096H.grib2 2026-04-14 16:32 538K
20260414T12Z_MSC_GDPS_LiftedIndex-MU-VT_IsbL-0500_LatLon0.15_PT096H.grib2 2026-04-14 16:32 5.4M
20260414T12Z_MSC_GDPS_NetLongwaveRadiationFlux-Accum_Sfc_LatLon0.15_PT096H.grib2 2026-04-14 16:32 957K
20260414T12Z_MSC_GDPS_NetShortwaveRadiationFlux-Accum_Sfc_LatLon0.15_PT096H.grib2 2026-04-14 16:32 948K
20260414T12Z_MSC_GDPS_O3MixingRatio_LatLon0.15_PT096H.grib2 2026-04-14 16:56 1.9M
20260414T12Z_MSC_GDPS_O3_EAtm_LatLon0.15_PT096H.grib2 2026-04-14 16:56 2.1M
20260414T12Z_MSC_GDPS_PlanetaryBoundaryLayerHeight_Sfc_LatLon0.15_PT096H.grib2 2026-04-14 16:32 2.5M
20260414T12Z_MSC_GDPS_Precip-Accum12h_Sfc_LatLon0.15_PT096H.grib2 2026-04-14 16:32 4.0M
20260414T12Z_MSC_GDPS_Precip-Accum1h_Sfc_LatLon0.15_PT096H.grib2 2026-04-14 16:32 3.2M
20260414T12Z_MSC_GDPS_Precip-Accum24h_Sfc_LatLon0.15_PT096H.grib2 2026-04-14 16:32 4.5M
20260414T12Z_MSC_GDPS_Precip-Accum3h_Sfc_LatLon0.15_PT096H.grib2 2026-04-14 16:32 3.5M
20260414T12Z_MSC_GDPS_Precip-Accum6h_Sfc_LatLon0.15_PT096H.grib2 2026-04-14 16:32 3.8M
20260414T12Z_MSC_GDPS_Precip-Accum_Sfc_LatLon0.15_PT096H.grib2 2026-04-14 16:32 4.9M
20260414T12Z_MSC_GDPS_PrecipRate_Sfc_LatLon0.15_PT096H.grib2 2026-04-14 16:32 3.0M
20260414T12Z_MSC_GDPS_PrecipType-Instant_Sfc_LatLon0.15_PT096H.grib2 2026-04-14 16:32 1.5M
20260414T12Z_MSC_GDPS_Pressure_MSL_LatLon0.15_PT096H.grib2 2026-04-14 16:32 818K
20260414T12Z_MSC_GDPS_Pressure_PVU-1.5_LatLon0.15_PT096H.grib2 2026-04-14 16:32 5.8M
20260414T12Z_MSC_GDPS_Pressure_PVU-1_LatLon0.15_PT096H.grib2 2026-04-14 16:32 6.0M
20260414T12Z_MSC_GDPS_Pressure_PVU-2_LatLon0.15_PT096H.grib2 2026-04-14 16:32 5.6M
20260414T12Z_MSC_GDPS_Pressure_Sfc_LatLon0.15_PT096H.grib2 2026-04-14 16:32 1.1M
20260414T12Z_MSC_GDPS_RadiativeTemp_Sfc_LatLon0.15_PT096H.grib2 2026-04-14 16:32 503K
20260414T12Z_MSC_GDPS_Rain-Accum12h_Sfc_LatLon0.15_PT096H.grib2 2026-04-14 16:32 2.6M
20260414T12Z_MSC_GDPS_Rain-Accum1h_Sfc_LatLon0.15_PT096H.grib2 2026-04-14 16:32 1.6M
20260414T12Z_MSC_GDPS_Rain-Accum24h_Sfc_LatLon0.15_PT096H.grib2 2026-04-14 16:32 3.1M
20260414T12Z_MSC_GDPS_Rain-Accum3h_Sfc_LatLon0.15_PT096H.grib2 2026-04-14 16:32 1.6M
20260414T12Z_MSC_GDPS_Rain-Accum6h_Sfc_LatLon0.15_PT096H.grib2 2026-04-14 16:32 2.4M
20260414T12Z_MSC_GDPS_Rain-Accum_Sfc_LatLon0.15_PT096H.grib2 2026-04-14 16:32 3.7M
20260414T12Z_MSC_GDPS_RelativeHumidity_AGL-2m_LatLon0.15_PT096H.grib2 2026-04-14 16:32 1.1M
20260414T12Z_MSC_GDPS_RelativeHumidity_IsbL-0010_LatLon0.15_PT096H.grib2 2026-04-14 16:32 350K
20260414T12Z_MSC_GDPS_RelativeHumidity_IsbL-0020_LatLon0.15_PT096H.grib2 2026-04-14 16:32 371K
20260414T12Z_MSC_GDPS_RelativeHumidity_IsbL-0030_LatLon0.15_PT096H.grib2 2026-04-14 16:32 377K
20260414T12Z_MSC_GDPS_RelativeHumidity_IsbL-0050_LatLon0.15_PT096H.grib2 2026-04-14 16:32 407K
20260414T12Z_MSC_GDPS_RelativeHumidity_IsbL-0100_LatLon0.15_PT096H.grib2 2026-04-14 16:32 481K
20260414T12Z_MSC_GDPS_RelativeHumidity_IsbL-0150_LatLon0.15_PT096H.grib2 2026-04-14 16:32 656K
20260414T12Z_MSC_GDPS_RelativeHumidity_IsbL-0175_LatLon0.15_PT096H.grib2 2026-04-14 16:32 786K
20260414T12Z_MSC_GDPS_RelativeHumidity_IsbL-0200_LatLon0.15_PT096H.grib2 2026-04-14 16:32 691K
20260414T12Z_MSC_GDPS_RelativeHumidity_IsbL-0225_LatLon0.15_PT096H.grib2 2026-04-14 16:32 775K
20260414T12Z_MSC_GDPS_RelativeHumidity_IsbL-0250_LatLon0.15_PT096H.grib2 2026-04-14 16:32 867K
20260414T12Z_MSC_GDPS_RelativeHumidity_IsbL-0275_LatLon0.15_PT096H.grib2 2026-04-14 16:32 895K
20260414T12Z_MSC_GDPS_RelativeHumidity_IsbL-0300_LatLon0.15_PT096H.grib2 2026-04-14 16:32 941K
20260414T12Z_MSC_GDPS_RelativeHumidity_IsbL-0350_LatLon0.15_PT096H.grib2 2026-04-14 16:32 957K
20260414T12Z_MSC_GDPS_RelativeHumidity_IsbL-0400_LatLon0.15_PT096H.grib2 2026-04-14 16:32 1.0M
20260414T12Z_MSC_GDPS_RelativeHumidity_IsbL-0450_LatLon0.15_PT096H.grib2 2026-04-14 16:32 1.0M
20260414T12Z_MSC_GDPS_RelativeHumidity_IsbL-0500_LatLon0.15_PT096H.grib2 2026-04-14 16:32 1.0M
20260414T12Z_MSC_GDPS_RelativeHumidity_IsbL-0550_LatLon0.15_PT096H.grib2 2026-04-14 16:32 1.1M
20260414T12Z_MSC_GDPS_RelativeHumidity_IsbL-0600_LatLon0.15_PT096H.grib2 2026-04-14 16:32 1.1M
20260414T12Z_MSC_GDPS_RelativeHumidity_IsbL-0650_LatLon0.15_PT096H.grib2 2026-04-14 16:32 1.1M
20260414T12Z_MSC_GDPS_RelativeHumidity_IsbL-0700_LatLon0.15_PT096H.grib2 2026-04-14 16:32 1.1M
20260414T12Z_MSC_GDPS_RelativeHumidity_IsbL-0750_LatLon0.15_PT096H.grib2 2026-04-14 16:32 1.2M
20260414T12Z_MSC_GDPS_RelativeHumidity_IsbL-0800_LatLon0.15_PT096H.grib2 2026-04-14 16:32 1.3M
20260414T12Z_MSC_GDPS_RelativeHumidity_IsbL-0850_LatLon0.15_PT096H.grib2 2026-04-14 16:32 1.3M
20260414T12Z_MSC_GDPS_RelativeHumidity_IsbL-0875_LatLon0.15_PT096H.grib2 2026-04-14 16:32 1.3M
20260414T12Z_MSC_GDPS_RelativeHumidity_IsbL-0900_LatLon0.15_PT096H.grib2 2026-04-14 16:32 1.2M
20260414T12Z_MSC_GDPS_RelativeHumidity_IsbL-0925_LatLon0.15_PT096H.grib2 2026-04-14 16:32 1.2M
20260414T12Z_MSC_GDPS_RelativeHumidity_IsbL-0950_LatLon0.15_PT096H.grib2 2026-04-14 16:32 1.2M
20260414T12Z_MSC_GDPS_RelativeHumidity_IsbL-0970_LatLon0.15_PT096H.grib2 2026-04-14 16:32 1.2M
20260414T12Z_MSC_GDPS_RelativeHumidity_IsbL-0985_LatLon0.15_PT096H.grib2 2026-04-14 16:32 1.1M
20260414T12Z_MSC_GDPS_RelativeHumidity_IsbL-1000_LatLon0.15_PT096H.grib2 2026-04-14 16:32 1.1M
20260414T12Z_MSC_GDPS_RelativeHumidity_IsbL-1015_LatLon0.15_PT096H.grib2 2026-04-14 16:32 1.0M
20260414T12Z_MSC_GDPS_RelativeVorticity_IsbL-0200_LatLon0.15_PT096H.grib2 2026-04-14 16:32 1.2M
20260414T12Z_MSC_GDPS_RelativeVorticity_IsbL-0250_LatLon0.15_PT096H.grib2 2026-04-14 16:32 1.3M
20260414T12Z_MSC_GDPS_RelativeVorticity_IsbL-0500_LatLon0.15_PT096H.grib2 2026-04-14 16:32 1.5M
20260414T12Z_MSC_GDPS_RelativeVorticity_IsbL-0700_LatLon0.15_PT096H.grib2 2026-04-14 16:32 1.6M
20260414T12Z_MSC_GDPS_RelativeVorticity_IsbL-0850_LatLon0.15_PT096H.grib2 2026-04-14 16:32 1.6M
20260414T12Z_MSC_GDPS_Runoff-Accum_Sfc_LatLon0.15_PT096H.grib2 2026-04-14 16:32 105K
20260414T12Z_MSC_GDPS_SensibleHeatNetFlux_Sfc_LatLon0.15_PT096H.grib2 2026-04-14 16:32 634K
20260414T12Z_MSC_GDPS_ShowalterIndex_IsbL-0500_LatLon0.15_PT096H.grib2 2026-04-14 16:32 6.2M
20260414T12Z_MSC_GDPS_Snow-Accum12h_Sfc_LatLon0.15_PT096H.grib2 2026-04-14 16:32 1.5M
20260414T12Z_MSC_GDPS_Snow-Accum1h_Sfc_LatLon0.15_PT096H.grib2 2026-04-14 16:32 1.3M
20260414T12Z_MSC_GDPS_Snow-Accum24h_Sfc_LatLon0.15_PT096H.grib2 2026-04-14 16:32 1.6M
20260414T12Z_MSC_GDPS_Snow-Accum3h_Sfc_LatLon0.15_PT096H.grib2 2026-04-14 16:32 1.1M
20260414T12Z_MSC_GDPS_Snow-Accum6h_Sfc_LatLon0.15_PT096H.grib2 2026-04-14 16:32 1.5M
20260414T12Z_MSC_GDPS_Snow-Accum_Sfc_LatLon0.15_PT096H.grib2 2026-04-14 16:32 2.0M
20260414T12Z_MSC_GDPS_SnowDensity_Sfc_LatLon0.15_PT096H.grib2 2026-04-14 16:32 268K
20260414T12Z_MSC_GDPS_SnowDepth_Sfc_LatLon0.15_PT096H.grib2 2026-04-14 16:32 1.8M
20260414T12Z_MSC_GDPS_SoilTemp_DBS-0to10cm_LatLon0.15_PT096H.grib2 2026-04-14 16:32 507K
20260414T12Z_MSC_GDPS_SoilTemp_Sfc_LatLon0.15_PT096H.grib2 2026-04-14 16:32 576K
20260414T12Z_MSC_GDPS_SoilVolumetricIceContent_Sfc_LatLon0.15_PT096H.grib2 2026-04-14 16:32 224K
20260414T12Z_MSC_GDPS_SoilVolumetricWaterContent_DBS-0to10cm_LatLon0.15_PT096H.grib2 2026-04-14 16:32 553K
20260414T12Z_MSC_GDPS_SoilVolumetricWaterContent_DBS-0to1cm_LatLon0.15_PT096H.grib2 2026-04-14 16:32 649K
20260414T12Z_MSC_GDPS_SpecificHumidity_AGL-120m_LatLon0.15_PT096H.grib2 2026-04-14 16:32 1.1M
20260414T12Z_MSC_GDPS_SpecificHumidity_AGL-2m_LatLon0.15_PT096H.grib2 2026-04-14 16:32 1.2M
20260414T12Z_MSC_GDPS_SpecificHumidity_AGL-40m_LatLon0.15_PT096H.grib2 2026-04-14 16:32 1.1M
20260414T12Z_MSC_GDPS_SpecificHumidity_AGL-80m_LatLon0.15_PT096H.grib2 2026-04-14 16:32 1.1M
20260414T12Z_MSC_GDPS_SpecificHumidity_IsbL-0001_LatLon0.15_PT096H.grib2 2026-04-14 16:32 1.1M
20260414T12Z_MSC_GDPS_SpecificHumidity_IsbL-0005_LatLon0.15_PT096H.grib2 2026-04-14 16:32 1.1M
20260414T12Z_MSC_GDPS_SpecificHumidity_IsbL-0010_LatLon0.15_PT096H.grib2 2026-04-14 16:32 1.3M
20260414T12Z_MSC_GDPS_SpecificHumidity_IsbL-0020_LatLon0.15_PT096H.grib2 2026-04-14 16:32 1.3M
20260414T12Z_MSC_GDPS_SpecificHumidity_IsbL-0030_LatLon0.15_PT096H.grib2 2026-04-14 16:32 1.3M
20260414T12Z_MSC_GDPS_SpecificHumidity_IsbL-0050_LatLon0.15_PT096H.grib2 2026-04-14 16:32 1.3M
20260414T12Z_MSC_GDPS_SpecificHumidity_IsbL-0100_LatLon0.15_PT096H.grib2 2026-04-14 16:32 1.3M
20260414T12Z_MSC_GDPS_SpecificHumidity_IsbL-0150_LatLon0.15_PT096H.grib2 2026-04-14 16:32 1.3M
20260414T12Z_MSC_GDPS_SpecificHumidity_IsbL-0175_LatLon0.15_PT096H.grib2 2026-04-14 16:32 1.3M
20260414T12Z_MSC_GDPS_SpecificHumidity_IsbL-0200_LatLon0.15_PT096H.grib2 2026-04-14 16:32 1.3M
20260414T12Z_MSC_GDPS_SpecificHumidity_IsbL-0225_LatLon0.15_PT096H.grib2 2026-04-14 16:32 1.3M
20260414T12Z_MSC_GDPS_SpecificHumidity_IsbL-0250_LatLon0.15_PT096H.grib2 2026-04-14 16:32 1.2M
20260414T12Z_MSC_GDPS_SpecificHumidity_IsbL-0275_LatLon0.15_PT096H.grib2 2026-04-14 16:32 1.3M
20260414T12Z_MSC_GDPS_SpecificHumidity_IsbL-0300_LatLon0.15_PT096H.grib2 2026-04-14 16:32 1.2M
20260414T12Z_MSC_GDPS_SpecificHumidity_IsbL-0350_LatLon0.15_PT096H.grib2 2026-04-14 16:32 1.2M
20260414T12Z_MSC_GDPS_SpecificHumidity_IsbL-0400_LatLon0.15_PT096H.grib2 2026-04-14 16:32 1.4M
20260414T12Z_MSC_GDPS_SpecificHumidity_IsbL-0450_LatLon0.15_PT096H.grib2 2026-04-14 16:32 1.3M
20260414T12Z_MSC_GDPS_SpecificHumidity_IsbL-0500_LatLon0.15_PT096H.grib2 2026-04-14 16:32 1.4M
20260414T12Z_MSC_GDPS_SpecificHumidity_IsbL-0550_LatLon0.15_PT096H.grib2 2026-04-14 16:32 1.6M
20260414T12Z_MSC_GDPS_SpecificHumidity_IsbL-0600_LatLon0.15_PT096H.grib2 2026-04-14 16:32 1.4M
20260414T12Z_MSC_GDPS_SpecificHumidity_IsbL-0650_LatLon0.15_PT096H.grib2 2026-04-14 16:32 1.5M
20260414T12Z_MSC_GDPS_SpecificHumidity_IsbL-0700_LatLon0.15_PT096H.grib2 2026-04-14 16:32 1.6M
20260414T12Z_MSC_GDPS_SpecificHumidity_IsbL-0750_LatLon0.15_PT096H.grib2 2026-04-14 16:32 1.7M
20260414T12Z_MSC_GDPS_SpecificHumidity_IsbL-0800_LatLon0.15_PT096H.grib2 2026-04-14 16:32 1.8M
20260414T12Z_MSC_GDPS_SpecificHumidity_IsbL-0850_LatLon0.15_PT096H.grib2 2026-04-14 16:32 1.9M
20260414T12Z_MSC_GDPS_SpecificHumidity_IsbL-0875_LatLon0.15_PT096H.grib2 2026-04-14 16:32 1.9M
20260414T12Z_MSC_GDPS_SpecificHumidity_IsbL-0900_LatLon0.15_PT096H.grib2 2026-04-14 16:32 1.6M
20260414T12Z_MSC_GDPS_SpecificHumidity_IsbL-0925_LatLon0.15_PT096H.grib2 2026-04-14 16:32 1.6M
20260414T12Z_MSC_GDPS_SpecificHumidity_IsbL-0950_LatLon0.15_PT096H.grib2 2026-04-14 16:32 1.5M
20260414T12Z_MSC_GDPS_SpecificHumidity_IsbL-0970_LatLon0.15_PT096H.grib2 2026-04-14 16:32 1.5M
20260414T12Z_MSC_GDPS_SpecificHumidity_IsbL-0985_LatLon0.15_PT096H.grib2 2026-04-14 16:32 1.5M
20260414T12Z_MSC_GDPS_SpecificHumidity_IsbL-1000_LatLon0.15_PT096H.grib2 2026-04-14 16:32 1.5M
20260414T12Z_MSC_GDPS_SpecificHumidity_IsbL-1015_LatLon0.15_PT096H.grib2 2026-04-14 16:32 1.4M
20260414T12Z_MSC_GDPS_SpecificHumidity_Sfc_LatLon0.15_PT096H.grib2 2026-04-14 16:32 670K
20260414T12Z_MSC_GDPS_Thickness_IsbL-0850to0700_LatLon0.15_PT096H.grib2 2026-04-14 16:32 470K
20260414T12Z_MSC_GDPS_Thickness_IsbL-1000to0500_LatLon0.15_PT096H.grib2 2026-04-14 16:32 375K
20260414T12Z_MSC_GDPS_Thickness_IsbL-1000to0850_LatLon0.15_PT096H.grib2 2026-04-14 16:32 491K
20260414T12Z_MSC_GDPS_TotalCloudCover_Sfc_LatLon0.15_PT096H.grib2 2026-04-14 16:32 822K
20260414T12Z_MSC_GDPS_TotalTotalsIndex_Sfc_LatLon0.15_PT096H.grib2 2026-04-14 16:32 6.2M
20260414T12Z_MSC_GDPS_UVIndex-ClearSky_Sfc_LatLon0.15_PT096H.grib2 2026-04-14 16:56 1.0M
20260414T12Z_MSC_GDPS_UVIndex_Sfc_LatLon0.15_PT096H.grib2 2026-04-14 16:56 1.4M
20260414T12Z_MSC_GDPS_UpwardLongwaveRadiationFlux_NTAtm_LatLon0.15_PT096H.grib2 2026-04-14 16:32 837K
20260414T12Z_MSC_GDPS_VerticalVelocity_IsbL-0200_LatLon0.15_PT096H.grib2 2026-04-14 16:32 926K
20260414T12Z_MSC_GDPS_VerticalVelocity_IsbL-0250_LatLon0.15_PT096H.grib2 2026-04-14 16:32 1.0M
20260414T12Z_MSC_GDPS_VerticalVelocity_IsbL-0500_LatLon0.15_PT096H.grib2 2026-04-14 16:32 1.0M
20260414T12Z_MSC_GDPS_VerticalVelocity_IsbL-0600_LatLon0.15_PT096H.grib2 2026-04-14 16:32 1.0M
20260414T12Z_MSC_GDPS_VerticalVelocity_IsbL-0700_LatLon0.15_PT096H.grib2 2026-04-14 16:32 1.4M
20260414T12Z_MSC_GDPS_VerticalVelocity_IsbL-0850_LatLon0.15_PT096H.grib2 2026-04-14 16:32 1.6M
20260414T12Z_MSC_GDPS_WindChill_Sfc_LatLon0.15_PT096H.grib2 2026-04-14 16:32 5.3M
20260414T12Z_MSC_GDPS_WindDir_AGL-10m_LatLon0.15_PT096H.grib2 2026-04-14 16:32 1.3M
20260414T12Z_MSC_GDPS_WindDir_AGL-120m_LatLon0.15_PT096H.grib2 2026-04-14 16:32 1.4M
20260414T12Z_MSC_GDPS_WindDir_AGL-40m_LatLon0.15_PT096H.grib2 2026-04-14 16:32 1.4M
20260414T12Z_MSC_GDPS_WindDir_AGL-80m_LatLon0.15_PT096H.grib2 2026-04-14 16:32 1.4M
20260414T12Z_MSC_GDPS_WindDir_IsbL-0001_LatLon0.15_PT096H.grib2 2026-04-14 16:32 641K
20260414T12Z_MSC_GDPS_WindDir_IsbL-0005_LatLon0.15_PT096H.grib2 2026-04-14 16:32 780K
20260414T12Z_MSC_GDPS_WindDir_IsbL-0010_LatLon0.15_PT096H.grib2 2026-04-14 16:32 833K
20260414T12Z_MSC_GDPS_WindDir_IsbL-0020_LatLon0.15_PT096H.grib2 2026-04-14 16:32 911K
20260414T12Z_MSC_GDPS_WindDir_IsbL-0030_LatLon0.15_PT096H.grib2 2026-04-14 16:32 861K
20260414T12Z_MSC_GDPS_WindDir_IsbL-0050_LatLon0.15_PT096H.grib2 2026-04-14 16:32 933K
20260414T12Z_MSC_GDPS_WindDir_IsbL-0100_LatLon0.15_PT096H.grib2 2026-04-14 16:32 1.0M
20260414T12Z_MSC_GDPS_WindDir_IsbL-0150_LatLon0.15_PT096H.grib2 2026-04-14 16:32 1.0M
20260414T12Z_MSC_GDPS_WindDir_IsbL-0175_LatLon0.15_PT096H.grib2 2026-04-14 16:32 1.0M
20260414T12Z_MSC_GDPS_WindDir_IsbL-0200_LatLon0.15_PT096H.grib2 2026-04-14 16:32 1.1M
20260414T12Z_MSC_GDPS_WindDir_IsbL-0225_LatLon0.15_PT096H.grib2 2026-04-14 16:32 1.1M
20260414T12Z_MSC_GDPS_WindDir_IsbL-0250_LatLon0.15_PT096H.grib2 2026-04-14 16:32 1.1M
20260414T12Z_MSC_GDPS_WindDir_IsbL-0275_LatLon0.15_PT096H.grib2 2026-04-14 16:32 1.1M
20260414T12Z_MSC_GDPS_WindDir_IsbL-0300_LatLon0.15_PT096H.grib2 2026-04-14 16:32 1.2M
20260414T12Z_MSC_GDPS_WindDir_IsbL-0350_LatLon0.15_PT096H.grib2 2026-04-14 16:32 1.2M
20260414T12Z_MSC_GDPS_WindDir_IsbL-0400_LatLon0.15_PT096H.grib2 2026-04-14 16:32 1.3M
20260414T12Z_MSC_GDPS_WindDir_IsbL-0450_LatLon0.15_PT096H.grib2 2026-04-14 16:32 1.3M
20260414T12Z_MSC_GDPS_WindDir_IsbL-0500_LatLon0.15_PT096H.grib2 2026-04-14 16:32 1.3M
20260414T12Z_MSC_GDPS_WindDir_IsbL-0550_LatLon0.15_PT096H.grib2 2026-04-14 16:32 1.4M
20260414T12Z_MSC_GDPS_WindDir_IsbL-0600_LatLon0.15_PT096H.grib2 2026-04-14 16:32 1.5M
20260414T12Z_MSC_GDPS_WindDir_IsbL-0650_LatLon0.15_PT096H.grib2 2026-04-14 16:32 1.5M
20260414T12Z_MSC_GDPS_WindDir_IsbL-0700_LatLon0.15_PT096H.grib2 2026-04-14 16:32 1.6M
20260414T12Z_MSC_GDPS_WindDir_IsbL-0750_LatLon0.15_PT096H.grib2 2026-04-14 16:32 1.7M
20260414T12Z_MSC_GDPS_WindDir_IsbL-0800_LatLon0.15_PT096H.grib2 2026-04-14 16:32 1.8M
20260414T12Z_MSC_GDPS_WindDir_IsbL-0850_LatLon0.15_PT096H.grib2 2026-04-14 16:32 2.0M
20260414T12Z_MSC_GDPS_WindDir_IsbL-0875_LatLon0.15_PT096H.grib2 2026-04-14 16:32 2.0M
20260414T12Z_MSC_GDPS_WindDir_IsbL-0900_LatLon0.15_PT096H.grib2 2026-04-14 16:32 2.0M
20260414T12Z_MSC_GDPS_WindDir_IsbL-0925_LatLon0.15_PT096H.grib2 2026-04-14 16:32 2.0M
20260414T12Z_MSC_GDPS_WindDir_IsbL-0950_LatLon0.15_PT096H.grib2 2026-04-14 16:32 2.0M
20260414T12Z_MSC_GDPS_WindDir_IsbL-0970_LatLon0.15_PT096H.grib2 2026-04-14 16:32 2.0M
20260414T12Z_MSC_GDPS_WindDir_IsbL-0985_LatLon0.15_PT096H.grib2 2026-04-14 16:32 2.0M
20260414T12Z_MSC_GDPS_WindDir_IsbL-1000_LatLon0.15_PT096H.grib2 2026-04-14 16:32 2.1M
20260414T12Z_MSC_GDPS_WindDir_IsbL-1015_LatLon0.15_PT096H.grib2 2026-04-14 16:32 2.1M
20260414T12Z_MSC_GDPS_WindGust-Max_AGL-10m_LatLon0.15_PT096H.grib2 2026-04-14 16:32 2.3M
20260414T12Z_MSC_GDPS_WindGust-Min_AGL-10m_LatLon0.15_PT096H.grib2 2026-04-14 16:32 2.2M
20260414T12Z_MSC_GDPS_WindGust_AGL-10m_LatLon0.15_PT096H.grib2 2026-04-14 16:32 2.2M
20260414T12Z_MSC_GDPS_WindSpeed_AGL-10m_LatLon0.15_PT096H.grib2 2026-04-14 16:32 1.1M
20260414T12Z_MSC_GDPS_WindSpeed_AGL-120m_LatLon0.15_PT096H.grib2 2026-04-14 16:32 1.2M
20260414T12Z_MSC_GDPS_WindSpeed_AGL-40m_LatLon0.15_PT096H.grib2 2026-04-14 16:32 1.2M
20260414T12Z_MSC_GDPS_WindSpeed_AGL-80m_LatLon0.15_PT096H.grib2 2026-04-14 16:32 1.2M
20260414T12Z_MSC_GDPS_WindSpeed_IsbL-0001_LatLon0.15_PT096H.grib2 2026-04-14 16:32 632K
20260414T12Z_MSC_GDPS_WindSpeed_IsbL-0005_LatLon0.15_PT096H.grib2 2026-04-14 16:32 686K
20260414T12Z_MSC_GDPS_WindSpeed_IsbL-0010_LatLon0.15_PT096H.grib2 2026-04-14 16:32 619K
20260414T12Z_MSC_GDPS_WindSpeed_IsbL-0020_LatLon0.15_PT096H.grib2 2026-04-14 16:32 853K
20260414T12Z_MSC_GDPS_WindSpeed_IsbL-0030_LatLon0.15_PT096H.grib2 2026-04-14 16:32 850K
20260414T12Z_MSC_GDPS_WindSpeed_IsbL-0050_LatLon0.15_PT096H.grib2 2026-04-14 16:32 910K
20260414T12Z_MSC_GDPS_WindSpeed_IsbL-0100_LatLon0.15_PT096H.grib2 2026-04-14 16:32 1.1M
20260414T12Z_MSC_GDPS_WindSpeed_IsbL-0150_LatLon0.15_PT096H.grib2 2026-04-14 16:32 1.0M
20260414T12Z_MSC_GDPS_WindSpeed_IsbL-0175_LatLon0.15_PT096H.grib2 2026-04-14 16:32 1.0M
20260414T12Z_MSC_GDPS_WindSpeed_IsbL-0200_LatLon0.15_PT096H.grib2 2026-04-14 16:32 1.1M
20260414T12Z_MSC_GDPS_WindSpeed_IsbL-0225_LatLon0.15_PT096H.grib2 2026-04-14 16:32 1.1M
20260414T12Z_MSC_GDPS_WindSpeed_IsbL-0250_LatLon0.15_PT096H.grib2 2026-04-14 16:32 1.1M
20260414T12Z_MSC_GDPS_WindSpeed_IsbL-0275_LatLon0.15_PT096H.grib2 2026-04-14 16:32 1.1M
20260414T12Z_MSC_GDPS_WindSpeed_IsbL-0300_LatLon0.15_PT096H.grib2 2026-04-14 16:32 1.1M
20260414T12Z_MSC_GDPS_WindSpeed_IsbL-0350_LatLon0.15_PT096H.grib2 2026-04-14 16:32 1.1M
20260414T12Z_MSC_GDPS_WindSpeed_IsbL-0400_LatLon0.15_PT096H.grib2 2026-04-14 16:32 1.1M
20260414T12Z_MSC_GDPS_WindSpeed_IsbL-0450_LatLon0.15_PT096H.grib2 2026-04-14 16:32 1.1M
20260414T12Z_MSC_GDPS_WindSpeed_IsbL-0500_LatLon0.15_PT096H.grib2 2026-04-14 16:32 1.1M
20260414T12Z_MSC_GDPS_WindSpeed_IsbL-0550_LatLon0.15_PT096H.grib2 2026-04-14 16:32 1.1M
20260414T12Z_MSC_GDPS_WindSpeed_IsbL-0600_LatLon0.15_PT096H.grib2 2026-04-14 16:32 1.4M
20260414T12Z_MSC_GDPS_WindSpeed_IsbL-0650_LatLon0.15_PT096H.grib2 2026-04-14 16:32 1.4M
20260414T12Z_MSC_GDPS_WindSpeed_IsbL-0700_LatLon0.15_PT096H.grib2 2026-04-14 16:32 1.5M
20260414T12Z_MSC_GDPS_WindSpeed_IsbL-0750_LatLon0.15_PT096H.grib2 2026-04-14 16:32 1.6M
20260414T12Z_MSC_GDPS_WindSpeed_IsbL-0800_LatLon0.15_PT096H.grib2 2026-04-14 16:32 1.7M
20260414T12Z_MSC_GDPS_WindSpeed_IsbL-0850_LatLon0.15_PT096H.grib2 2026-04-14 16:32 1.7M
20260414T12Z_MSC_GDPS_WindSpeed_IsbL-0875_LatLon0.15_PT096H.grib2 2026-04-14 16:32 1.9M
20260414T12Z_MSC_GDPS_WindSpeed_IsbL-0900_LatLon0.15_PT096H.grib2 2026-04-14 16:32 1.9M
20260414T12Z_MSC_GDPS_WindSpeed_IsbL-0925_LatLon0.15_PT096H.grib2 2026-04-14 16:32 1.9M
20260414T12Z_MSC_GDPS_WindSpeed_IsbL-0950_LatLon0.15_PT096H.grib2 2026-04-14 16:32 1.9M
20260414T12Z_MSC_GDPS_WindSpeed_IsbL-0970_LatLon0.15_PT096H.grib2 2026-04-14 16:32 1.8M
20260414T12Z_MSC_GDPS_WindSpeed_IsbL-0985_LatLon0.15_PT096H.grib2 2026-04-14 16:32 1.8M
20260414T12Z_MSC_GDPS_WindSpeed_IsbL-1000_LatLon0.15_PT096H.grib2 2026-04-14 16:32 1.8M
20260414T12Z_MSC_GDPS_WindSpeed_IsbL-1015_LatLon0.15_PT096H.grib2 2026-04-14 16:32 1.8M
20260414T12Z_MSC_GDPS_WindU_AGL-10m_LatLon0.15_PT096H.grib2 2026-04-14 16:32 1.6M
20260414T12Z_MSC_GDPS_WindU_AGL-120m_LatLon0.15_PT096H.grib2 2026-04-14 16:32 962K
20260414T12Z_MSC_GDPS_WindU_AGL-40m_LatLon0.15_PT096H.grib2 2026-04-14 16:32 1.2M
20260414T12Z_MSC_GDPS_WindU_AGL-80m_LatLon0.15_PT096H.grib2 2026-04-14 16:32 963K
20260414T12Z_MSC_GDPS_WindU_IsbL-0001_LatLon0.15_PT096H.grib2 2026-04-14 16:32 497K
20260414T12Z_MSC_GDPS_WindU_IsbL-0005_LatLon0.15_PT096H.grib2 2026-04-14 16:32 686K
20260414T12Z_MSC_GDPS_WindU_IsbL-0010_LatLon0.15_PT096H.grib2 2026-04-14 16:32 697K
20260414T12Z_MSC_GDPS_WindU_IsbL-0020_LatLon0.15_PT096H.grib2 2026-04-14 16:32 733K
20260414T12Z_MSC_GDPS_WindU_IsbL-0030_LatLon0.15_PT096H.grib2 2026-04-14 16:32 731K
20260414T12Z_MSC_GDPS_WindU_IsbL-0050_LatLon0.15_PT096H.grib2 2026-04-14 16:32 701K
20260414T12Z_MSC_GDPS_WindU_IsbL-0100_LatLon0.15_PT096H.grib2 2026-04-14 16:32 923K
20260414T12Z_MSC_GDPS_WindU_IsbL-0150_LatLon0.15_PT096H.grib2 2026-04-14 16:32 1.0M
20260414T12Z_MSC_GDPS_WindU_IsbL-0175_LatLon0.15_PT096H.grib2 2026-04-14 16:32 1.0M
20260414T12Z_MSC_GDPS_WindU_IsbL-0200_LatLon0.15_PT096H.grib2 2026-04-14 16:32 843K
20260414T12Z_MSC_GDPS_WindU_IsbL-0225_LatLon0.15_PT096H.grib2 2026-04-14 16:32 852K
20260414T12Z_MSC_GDPS_WindU_IsbL-0250_LatLon0.15_PT096H.grib2 2026-04-14 16:32 852K
20260414T12Z_MSC_GDPS_WindU_IsbL-0275_LatLon0.15_PT096H.grib2 2026-04-14 16:32 879K
20260414T12Z_MSC_GDPS_WindU_IsbL-0300_LatLon0.15_PT096H.grib2 2026-04-14 16:32 871K
20260414T12Z_MSC_GDPS_WindU_IsbL-0350_LatLon0.15_PT096H.grib2 2026-04-14 16:32 885K
20260414T12Z_MSC_GDPS_WindU_IsbL-0400_LatLon0.15_PT096H.grib2 2026-04-14 16:32 883K
20260414T12Z_MSC_GDPS_WindU_IsbL-0450_LatLon0.15_PT096H.grib2 2026-04-14 16:32 1.1M
20260414T12Z_MSC_GDPS_WindU_IsbL-0500_LatLon0.15_PT096H.grib2 2026-04-14 16:32 1.1M
20260414T12Z_MSC_GDPS_WindU_IsbL-0550_LatLon0.15_PT096H.grib2 2026-04-14 16:32 1.1M
20260414T12Z_MSC_GDPS_WindU_IsbL-0600_LatLon0.15_PT096H.grib2 2026-04-14 16:32 1.1M
20260414T12Z_MSC_GDPS_WindU_IsbL-0650_LatLon0.15_PT096H.grib2 2026-04-14 16:32 1.2M
20260414T12Z_MSC_GDPS_WindU_IsbL-0700_LatLon0.15_PT096H.grib2 2026-04-14 16:32 1.2M
20260414T12Z_MSC_GDPS_WindU_IsbL-0750_LatLon0.15_PT096H.grib2 2026-04-14 16:32 1.3M
20260414T12Z_MSC_GDPS_WindU_IsbL-0800_LatLon0.15_PT096H.grib2 2026-04-14 16:32 1.3M
20260414T12Z_MSC_GDPS_WindU_IsbL-0850_LatLon0.15_PT096H.grib2 2026-04-14 16:32 1.4M
20260414T12Z_MSC_GDPS_WindU_IsbL-0875_LatLon0.15_PT096H.grib2 2026-04-14 16:32 1.4M
20260414T12Z_MSC_GDPS_WindU_IsbL-0900_LatLon0.15_PT096H.grib2 2026-04-14 16:32 1.4M
20260414T12Z_MSC_GDPS_WindU_IsbL-0925_LatLon0.15_PT096H.grib2 2026-04-14 16:32 1.4M
20260414T12Z_MSC_GDPS_WindU_IsbL-0950_LatLon0.15_PT096H.grib2 2026-04-14 16:32 1.4M
20260414T12Z_MSC_GDPS_WindU_IsbL-0970_LatLon0.15_PT096H.grib2 2026-04-14 16:32 1.4M
20260414T12Z_MSC_GDPS_WindU_IsbL-0985_LatLon0.15_PT096H.grib2 2026-04-14 16:32 1.4M
20260414T12Z_MSC_GDPS_WindU_IsbL-1000_LatLon0.15_PT096H.grib2 2026-04-14 16:32 1.7M
20260414T12Z_MSC_GDPS_WindU_IsbL-1015_LatLon0.15_PT096H.grib2 2026-04-14 16:32 1.6M
20260414T12Z_MSC_GDPS_WindV_AGL-10m_LatLon0.15_PT096H.grib2 2026-04-14 16:32 1.6M
20260414T12Z_MSC_GDPS_WindV_AGL-120m_LatLon0.15_PT096H.grib2 2026-04-14 16:32 969K
20260414T12Z_MSC_GDPS_WindV_AGL-40m_LatLon0.15_PT096H.grib2 2026-04-14 16:32 965K
20260414T12Z_MSC_GDPS_WindV_AGL-80m_LatLon0.15_PT096H.grib2 2026-04-14 16:32 970K
20260414T12Z_MSC_GDPS_WindV_IsbL-0001_LatLon0.15_PT096H.grib2 2026-04-14 16:32 761K
20260414T12Z_MSC_GDPS_WindV_IsbL-0005_LatLon0.15_PT096H.grib2 2026-04-14 16:32 845K
20260414T12Z_MSC_GDPS_WindV_IsbL-0010_LatLon0.15_PT096H.grib2 2026-04-14 16:32 798K
20260414T12Z_MSC_GDPS_WindV_IsbL-0020_LatLon0.15_PT096H.grib2 2026-04-14 16:32 850K
20260414T12Z_MSC_GDPS_WindV_IsbL-0030_LatLon0.15_PT096H.grib2 2026-04-14 16:32 845K
20260414T12Z_MSC_GDPS_WindV_IsbL-0050_LatLon0.15_PT096H.grib2 2026-04-14 16:32 700K
20260414T12Z_MSC_GDPS_WindV_IsbL-0100_LatLon0.15_PT096H.grib2 2026-04-14 16:32 847K
20260414T12Z_MSC_GDPS_WindV_IsbL-0150_LatLon0.15_PT096H.grib2 2026-04-14 16:32 1.0M
20260414T12Z_MSC_GDPS_WindV_IsbL-0175_LatLon0.15_PT096H.grib2 2026-04-14 16:32 1.0M
20260414T12Z_MSC_GDPS_WindV_IsbL-0200_LatLon0.15_PT096H.grib2 2026-04-14 16:32 841K
20260414T12Z_MSC_GDPS_WindV_IsbL-0225_LatLon0.15_PT096H.grib2 2026-04-14 16:32 848K
20260414T12Z_MSC_GDPS_WindV_IsbL-0250_LatLon0.15_PT096H.grib2 2026-04-14 16:32 908K
20260414T12Z_MSC_GDPS_WindV_IsbL-0275_LatLon0.15_PT096H.grib2 2026-04-14 16:32 931K
20260414T12Z_MSC_GDPS_WindV_IsbL-0300_LatLon0.15_PT096H.grib2 2026-04-14 16:32 923K
20260414T12Z_MSC_GDPS_WindV_IsbL-0350_LatLon0.15_PT096H.grib2 2026-04-14 16:32 877K
20260414T12Z_MSC_GDPS_WindV_IsbL-0400_LatLon0.15_PT096H.grib2 2026-04-14 16:32 875K
20260414T12Z_MSC_GDPS_WindV_IsbL-0450_LatLon0.15_PT096H.grib2 2026-04-14 16:32 873K
20260414T12Z_MSC_GDPS_WindV_IsbL-0500_LatLon0.15_PT096H.grib2 2026-04-14 16:32 1.1M
20260414T12Z_MSC_GDPS_WindV_IsbL-0550_LatLon0.15_PT096H.grib2 2026-04-14 16:32 1.1M
20260414T12Z_MSC_GDPS_WindV_IsbL-0600_LatLon0.15_PT096H.grib2 2026-04-14 16:32 1.1M
20260414T12Z_MSC_GDPS_WindV_IsbL-0650_LatLon0.15_PT096H.grib2 2026-04-14 16:32 1.2M
20260414T12Z_MSC_GDPS_WindV_IsbL-0700_LatLon0.15_PT096H.grib2 2026-04-14 16:32 1.2M
20260414T12Z_MSC_GDPS_WindV_IsbL-0750_LatLon0.15_PT096H.grib2 2026-04-14 16:32 1.3M
20260414T12Z_MSC_GDPS_WindV_IsbL-0800_LatLon0.15_PT096H.grib2 2026-04-14 16:32 1.3M
20260414T12Z_MSC_GDPS_WindV_IsbL-0850_LatLon0.15_PT096H.grib2 2026-04-14 16:32 1.4M
20260414T12Z_MSC_GDPS_WindV_IsbL-0875_LatLon0.15_PT096H.grib2 2026-04-14 16:32 1.4M
20260414T12Z_MSC_GDPS_WindV_IsbL-0900_LatLon0.15_PT096H.grib2 2026-04-14 16:32 1.4M
20260414T12Z_MSC_GDPS_WindV_IsbL-0925_LatLon0.15_PT096H.grib2 2026-04-14 16:32 1.4M
20260414T12Z_MSC_GDPS_WindV_IsbL-0950_LatLon0.15_PT096H.grib2 2026-04-14 16:32 1.4M
20260414T12Z_MSC_GDPS_WindV_IsbL-0970_LatLon0.15_PT096H.grib2 2026-04-14 16:32 1.4M
20260414T12Z_MSC_GDPS_WindV_IsbL-0985_LatLon0.15_PT096H.grib2 2026-04-14 16:32 1.4M
20260414T12Z_MSC_GDPS_WindV_IsbL-1000_LatLon0.15_PT096H.grib2 2026-04-14 16:32 1.7M
20260414T12Z_MSC_GDPS_WindV_IsbL-1015_LatLon0.15_PT096H.grib2 2026-04-14 16:32 1.6M